www.pogodaiklimat.ru

Погода и климат >> Архив погоды >> Индия >> Veraval


ПОГОДА в Veraval

  • Прогноз погоды в Veraval
  • Монитор погоды в Veraval
  • Климат города

АРХИВ ПОГОДЫ в Veraval

Время (UTC), дата Ветер
(напр.,м/с)
 
Видим.   Явления Облачность Т
(С)
Тd
(С)
f
(%)
Тe
(С)
Тes
(С)
Комфортность P
(гПа)
Po
(гПа)
Тmin
(С)
Tmax
(С)
R
(мм)
R24
(мм)
S
(см)
21 20.05 З 2 4000 м ясно +28.2 +25.9 87 +42 +42 опасность
перегрева
1005.4 1005.0
00 21.05 З 3 4000 м ясно +28.0 +25.7 87 +41 +41 опасность
перегрева
1005.5 1006.0
03 21.05 З 2 10 км 4/4 600 м
[Cu Sc]
+29.4 +12.8 36 +27 +30 жарко 1007.1 1007.0 +27.5
06 21.05 З 3 10 км 4/4 600 м
[Cu Sc]
+32.6 0.0 12 +29 +40 жарко 1007.6 1008.0
09 21.05 З 3 10 км 5/5 600 м
[Cu Sc]
+33.8 0.0 12 +30 +39 жарко 1006.4 1006.0
12 21.05 З 3 10 км 4/4 600 м
[Cu Sc]
+31.8 +13.4 33 +29 +31 жарко 1005.4 1005.0 +34.1
15 21.05 З 2 4000 м 4/4 600 м
[Sc]
+29.4 +26.6 85 +45 +45 опасность
перегрева
1006.0 1006.0
18 21.05 штиль 0 4000 м ясно +28.8 +26.3 86 +44 +44 опасность
перегрева
1006.4 1006.0
21 21.05 штиль 0 4000 м 3/3 600 м
[Sc]
+28.0 +26.0 89 +42 +42 опасность
перегрева
1006.0 1006.0
00 22.05 З 2 4000 м ясно +27.8 +12.9 40 +41 +41 опасность
перегрева
1006.3 1006.0
03 22.05 З 2 10 км 4/4 600 м
[Cu Sc]
+29.8 0.0 15 +27 +31 жарко 1009.2 1009.0 +27.4
06 22.05 З 2 10 км 1/1 750 м
[Cu hum]
+32.2 0.0 13 +29 +49 жарко 1009.2 1009.0
09 22.05 З 3 10 км 1/1 750 м
[Cu hum]
+32.8 0.0 12 +29 +43 жарко 1007.7 1008.0
12 22.05 З 3 10 км 4/4 600 м
[Cu Sc]
+31.8 +13.5 33 +29 +31 жарко 1006.8 1007.0 +33.0
15 22.05 З 2 4000 м ясно +29.6 +26.8 85 +46 +46 опасность
перегрева
1007.9 1008.0
18 22.05 З 1 4000 м 5/5 600 м
[Sc]
+28.6 +26.4 88 +44 +44 опасность
перегрева
1008.8 1009.0
21 22.05 штиль 0 4000 м ясно +28.0 +25.7 87 +41 +41 опасность
перегрева
1008.2 1008.0
00 23.05 З 2 4000 м ясно +27.8 +12.7 39 +40 +40 очень
душно
1008.0 1008.0
03 23.05 З 1 10 км ясно +30.0 0.0 14 +27 +34 жарко 1009.0 1009.0 +27.0
06 23.05 З 3 10 км ясно +31.6 0.0 13 +28 +47 жарко 1010.0 1010.0
09 23.05 З 3 10 км ясно +32.4 0.0 13 +29 +45 жарко 1007.4 1007.0
12 23.05 З 3 10 км ясно +31.0 0.0 14 +28 +32 жарко 1005.6 1006.0 +32.9
15 23.05 З 2 4000 м ясно +28.8 +13.3 39 +45 +45 опасность
перегрева
1006.0 1006.0
18 23.05 З 2 4000 м ясно +28.2 +26.5 91 +44 +44 опасность
перегрева
1007.1 1007.0
21 23.05 З 2 4000 м ясно +27.4 +26.3 94 +42 +42 опасность
перегрева
1006.9 1007.0
00 24.05 З 2 4000 м ясно +27.4 +13.1 41 +41 +41 опасность
перегрева
1006.8 1007.0
03 24.05 штиль 0 10 км 3/3 600 м
[Sc]
+29.2 0.0 15 +27 +32 жарко 1008.2 1008.0 +27.0
06 24.05 З 2 10 км 3/3 600 м
[Sc]
+32.2 0.0 13 +29 +43 жарко 1008.6 1009.0
09 24.05 З 2 10 км 4/4 600 м
[Sc]
+32.6 0.0 12 +29 +40 жарко 1006.8 1007.0
12 24.05 З 3 10 км 4/4 600 м
[Sc]
+31.2 +13.5 34 +28 +30 жарко 1004.9 1005.0 +32.9
15 24.05 З 3 4000 м ясно +28.8 +26.9 89 +45 +45 опасность
перегрева
1005.2 1005.0
18 24.05 З 2 4000 м 3/3 600 м
[Sc]
+28.2 +26.8 92 +44 +44 опасность
перегрева
1005.6 1006.0
21 24.05 З 2 4000 м 3/3 600 м
[Sc]
+28.0 +26.6 92 +43 +43 опасность
перегрева
1005.6 1006.0
00 25.05 З 1 4000 м ясно +27.8 +26.4 92 +42 +42 опасность
перегрева
1005.9 1006.0
03 25.05 З 2 10 км 1/1 600 м
[Sc]
+29.2 +13.2 37 +27 +32 жарко 1007.0 1007.0 +27.2
06 25.05 З 2 10 км 4/4 600 м
[Sc]
+32.8 0.0 12 +29 +42 жарко 1007.4 1007.0
09 25.05 З 3 10 км ясно +32.8 0.0 12 +29 +46 жарко 1005.2 1005.0
12 25.05 З 3 10 км ясно +31.6 +13.8 34 +28 +32 жарко 1003.9 1004.0 +33.0
15 25.05 штиль 0 4000 м ясно +29.2 +27.5 91 +47 +47 опасность
перегрева
1004.9 1005.0
18 25.05 штиль 0 4000 м ясно +29.0 +27.3 91 +47 +47 опасность
перегрева
1005.8 1006.0
21 25.05 штиль 0 4000 м 4/4 600 м
[Sc]
+28.2 +26.8 92 +44 +44 опасность
перегрева
1005.1 1005.0
00 26.05 З 2 4000 м ясно +28.0 +13.3 40 +43 +43 опасность
перегрева
1005.1 1005.0
03 26.05 З 2 10 км 4/4 600 м
[Sc]
+29.0 0.0 15 +26 +30 жарко 1006.3 1006.0 +27.4
06 26.05 З 3 10 км 4/4 600 м
[Cu Sc]
+32.4 0.0 13 +29 +40 жарко 1006.8 1007.0
09 26.05 З 3 10 км 5/5 600 м
[Cu Sc]
+33.2 0.0 12 +30 +38 жарко 1005.7 1006.0
12 26.05 З 4 10 км 4/4 600 м
[Cu Sc]
+32.0 0.0 13 +29 +30 жарко 1004.2 1004.0 +33.4
15 26.05 З 3 4000 м 3/3 600 м
[Sc]
+29.8 +13.9 38 +50 +50 опасность
перегрева
1004.4 1004.0
18 26.05 З 2 4000 м 4/4 600 м
[Sc]
+29.2 +27.8 92 +48 +48 опасность
перегрева
1004.8 1005.0
21 26.05 З 2 4000 м 3/3 600 м
[Sc]
+29.0 +27.6 92 +47 +47 опасность
перегрева
1004.4 1004.0
00 27.05 З 3 4000 м 3/3 600 м
[Sc]
+28.8 +27.1 91 +46 +46 опасность
перегрева
1004.5 1005.0
03 27.05 З 3 10 км 4/4 600 м
[Cu Sc]
+29.8 +13.5 37 +27 +30 жарко 1006.0 1006.0 +28.3
06 27.05 З 4 10 км 4/4 600 м
[Cu Sc]
+32.4 0.0 13 +29 +37 жарко 1006.1 1006.0
09 27.05 З 5 10 км 5/5 600 м
[Cu Sc]
+33.2 0.0 12 +30 +35 жарко 1004.4 1004.0
12 27.05 З 4 10 км 5/5 600 м
[Cu Sc]
+32.0 0.0 13 +29 +30 жарко 1002.7 1003.0 +33.4
15 27.05 З 4 4000 м 5/5 600 м
[Sc]
+29.8 +27.9 90 +49 +49 опасность
перегрева
1003.3 1003.0
18 27.05 З 3 4000 м 4/4 600 м
[Sc]
+29.4 +28.0 92 +49 +49 опасность
перегрева
1004.1 1004.0

 

Местоположение метеостанции Veraval (Gujarat, Индия): широта 20.90 долгота 70.37 высота над уровнем моря 8 м.

В архиве по умолчанию представлена погода в Veraval за последнюю неделю. Архивные данные за месяц целиком и за предыдущие месяцы, начиная с января 2011 года, Вы можете получить, выбрав интересующий диапазон дат из раскрывающегося списка и нажав кнопку "Ввод!".

Внимание! Время в таблицах - всемирное. Для получения местного времени необходимо прибавить поправку, которая в Veraval равна 5.5 ч.

Смотрите также архив погоды в соседних городах и на ближайших метеорологических станциях:

Погода в Diu (Daman and Diu, Индия) (61 км)
Погода в Porbandar (Gujarat, Индия) (111 км)
Погода в Amreli (Gujarat, Индия) (118 км)
Погода в Mahuva (Gujarat, Индия) (148 км)
Погода в Rajkot (Gujarat, Индия) (161 км)
Погода в Dwarka (Gujarat, Индия) (211 км)
Погода в Bhaunagar (Gujarat, Индия) (212 км)
Погода в Okha (Gujarat, Индия) (218 км)
Погода в New Kandla (Gujarat, Индия) (234 км)
Погода в Surendranagar (Gujarat, Индия) (240 км)

Пояснения к столбцам:

Ветер - указаны скорость ветра в м/с - средняя за 10 мин, порывы в срок и между сроками (в фигурных скобках) и направление, откуда дует ветер: С - северный, СВ - северо-восточный, В - восточный, ЮВ - юго-восточный, Ю - южный, ЮЗ - юго-западный, З - западный, СЗ - северо-западный.
Видимость - горизонтальная дальность видимости в метрах или километрах. При видимости от 1 до 10 км при отсутствии осадков обычно наблюдается дымка, при ухудшении видимости до 1 км и менее - туман. В сухую погоду видимость может ухудшаться дымом, пылью или мглою.
Явления - указаны атмосферные явления, наблюдавшиеся в срок или в последний час перед сроком; фигурными скобками обозначены явления, наблюдавшиеся между сроками (за 1-3 часа до срока); квадратными скобками обозначены град или гололедные отложения с указанием их диаметра в мм.
Облачность - указаны через наклонную черту общая и нижняя облачность в баллах и высота нижней границы облаков в метрах; квадратными скобками обозначены формы облаков: Ci - перистые, Cs - перисто-слоистые, Cc - перисто-кучевые, Ac - высококучевые, As - высокослоистые, Sc - слоисто-кучевые, Ns - слоисто-дождевые, Cu - кучевые, Cb - кучево-дождевые. Подробнее классификацию облаков см. в Атласе облаков (PDF).
T - Температура воздуха - температура, измеренная на высоте 2 м над землей.
Td - Температура точки росы - температура, при понижении до которой содержащийся в воздухе водяной пар достигнет насыщения.
f - Относительная влажность воздуха - влажноcть воздуха, измеренная на высоте 2 м над землей.
Te - Эффективная температура - температура, которую ощущает одетый по сезону человек в тени. Характеристика душности погоды. При расчете учитывается влияние влажности воздуха и скорости ветра на теплоощущения человека.
Tes - Эффективная температура на солнце - температура, которую ощущает человек, с поправкой на солнечный нагрев. Характеристика знойности погоды. Зависит от высоты солнца над горизонтом, облачности и скорости ветра. Ночью, в пасмурную погоду, а также при ветре 12 м/с и более поправка равна нулю.
P - Атмосферное давление - приведенное к уровню моря атмосферное давление.
Po - Атмосферное давление - измеренное на уровне метеостанции атмосферное давление.
Tmin - Минимальная температура - минимум температуры воздуха на высоте 2 м над землей.
Tmax - Максимальная температура - максимум температуры воздуха на высоте 2 м над землей.
R - Количество осадков - Количество выпавших осадков за период времени, мм. При наведении курсора мыши на число - период времени, за который выпало указанное количество осадков.
R24 - Количество осадков - Количество выпавших осадков за 24 часа, мм.
S - Снежный покров - Высота снежного покрова, см. При наведении курсора мыши на число - состояние снежного покрова и степень покрытия местности в баллах.